Buena Vista, CO

2:28 PM MDT on April 19, 2018 (GMT -0600)
Buena Vista

Weather History for KAEJ - May, 2014

Change the Weather History Date:

Thursday, May 15, 2014

  Actual Average (KLXV) Record (KLXV)
Temperature  
Mean Temperature 40 °F -  
Max Temperature 55 °F 53 °F 67 °F (1978)
Min Temperature 26 °F 29 °F 19 °F (1985)
Degree Days  
Heating Degree Days 24    
Moisture  
Dew Point 25 °F    
Average Humidity 58    
Maximum Humidity 86    
Minimum Humidity 27    
Precipitation  
Precipitation 0.00 in - - ()
Sea Level Pressure  
Sea Level Pressure 30.33 in    
Wind  
Wind Speed 3 mph (NW)    
Max Wind Speed 22 mph    
Max Gust Speed 30 mph    
Visibility 10 miles    
Events      
Averages and records for this station are not official NWS values.
T = Trace of Precipitation, MM = Missing Value Source: NWS Daily Summary

Daily Weather History Graph

Daily Weather History Graph

Search for Another Location

Airport or City:

Astronomy

May. 15, 2014 Rise Set
Actual Time 5:52 AM MDT 8:10 PM MDT
Civil Twilight 5:22 AM MDT 8:40 PM MDT
Nautical Twilight 4:45 AM MDT 9:17 PM MDT
Astronomical Twilight 4:04 AM MDT 9:57 PM MDT
Moon 9:20 PM MDT (5/15) 6:41 AM MDT (5/15)
Length of Visible Light 15h 17m
Length of Day
14h 17m
Full, 99% of the Moon is Illuminated
May 15
Full
May 21
Last Quarter
May 28
New
Jun 5
First Quarter
Jun 12
Full

Hourly Weather History & Observations

Time (MDT) Temp. Windchill Dew Point Humidity Pressure Visibility Wind Dir Wind Speed Gust Speed Precip Events Conditions
12:15 AM 32.5 °F 29.3 °F 22.8 °F 67% 30.40 in 10.0 mi West 3.5 mph - N/A   Clear
12:35 AM 30.0 °F - 23.5 °F 77% 30.40 in 10.0 mi Calm Calm - N/A   Clear
12:55 AM 30.7 °F - 23.5 °F 75% 30.38 in 10.0 mi Calm Calm - N/A   Scattered Clouds
1:15 AM 30.4 °F - 23.4 °F 75% 30.39 in 10.0 mi Calm Calm - N/A   Scattered Clouds
1:35 AM 28.4 °F - 23.0 °F 80% 30.38 in 10.0 mi Calm Calm - N/A   Clear
1:55 AM 28.8 °F - 23.9 °F 82% 30.37 in 10.0 mi Calm Calm - N/A   Mostly Cloudy
2:15 AM 28.4 °F - 23.4 °F 81% 30.36 in 10.0 mi Calm Calm - N/A   Scattered Clouds
2:35 AM 27.9 °F - 23.0 °F 82% 30.36 in 10.0 mi Calm Calm - N/A   Scattered Clouds
2:55 AM 28.0 °F - 22.8 °F 81% 30.36 in 10.0 mi Calm Calm - N/A   Clear
3:15 AM 27.1 °F 23.2 °F 23.0 °F 84% 30.36 in 10.0 mi South 3.5 mph - N/A   Scattered Clouds
3:35 AM 28.4 °F 23.3 °F 22.8 °F 80% 30.36 in 10.0 mi South 4.6 mph - N/A   Scattered Clouds
3:55 AM 28.9 °F - 23.0 °F 78% 30.36 in 10.0 mi Calm Calm - N/A   Scattered Clouds
4:15 AM 27.7 °F - 23.4 °F 84% 30.36 in 10.0 mi Calm Calm - N/A   Scattered Clouds
4:35 AM 26.6 °F - 23.0 °F 86% 30.35 in 10.0 mi Calm Calm - N/A   Scattered Clouds
4:55 AM 28.2 °F - 23.0 °F 81% 30.35 in 10.0 mi Calm Calm - N/A   Scattered Clouds
5:15 AM 27.7 °F - 23.0 °F 83% 30.35 in 10.0 mi Calm Calm - N/A   Scattered Clouds
5:35 AM 27.5 °F - 22.6 °F 82% 30.35 in 10.0 mi Calm Calm - N/A   Scattered Clouds
5:55 AM 27.3 °F - 22.8 °F 83% 30.35 in 10.0 mi Calm Calm - N/A   Mostly Cloudy
6:15 AM 27.3 °F - 22.8 °F 83% 30.35 in 10.0 mi Calm Calm - N/A   Scattered Clouds
6:35 AM 26.8 °F - 22.5 °F 84% 30.35 in 10.0 mi Calm Calm - N/A   Scattered Clouds
6:55 AM 29.5 °F - 24.6 °F 82% 30.35 in 10.0 mi Calm Calm - N/A   Scattered Clouds
7:15 AM 31.3 °F - 23.9 °F 74% 30.35 in 10.0 mi Calm Calm - N/A   Clear
7:35 AM 32.7 °F - 25.3 °F 74% 30.35 in 10.0 mi Calm Calm - N/A   Clear
7:55 AM 34.7 °F 31.8 °F 25.5 °F 69% 30.35 in 10.0 mi ESE 3.5 mph - N/A   Clear
8:15 AM 38.5 °F 36.1 °F 25.9 °F 61% 30.34 in 10.0 mi ESE 3.5 mph - N/A   Scattered Clouds
8:35 AM 39.9 °F 37.8 °F 26.2 °F 58% 30.34 in 10.0 mi ESE 3.5 mph - N/A   Clear
8:55 AM 41.9 °F - 26.2 °F 54% 30.34 in 10.0 mi Calm Calm - N/A   Scattered Clouds
9:15 AM 43.7 °F 42.1 °F 25.9 °F 50% 30.33 in 10.0 mi SE 3.5 mph - N/A   Mostly Cloudy
9:35 AM 44.8 °F - 24.8 °F 46% 30.33 in 10.0 mi Calm Calm - N/A   Overcast
9:55 AM 46.0 °F - 23.5 °F 41% 30.33 in 10.0 mi Calm Calm - N/A   Overcast
10:15 AM 48.4 °F - 20.7 °F 33% 30.33 in 10.0 mi Calm Calm - N/A   Overcast
10:35 AM 49.1 °F - 20.5 °F 32% 30.32 in 10.0 mi Calm Calm - N/A   Mostly Cloudy
10:55 AM 49.1 °F - 20.1 °F 32% 30.32 in 10.0 mi Calm Calm - N/A   Overcast
11:15 AM 51.3 °F - 20.7 °F 30% 30.31 in 10.0 mi North 10.4 mph 17.3 mph N/A   Overcast
11:35 AM 51.1 °F - 20.3 °F 30% 30.32 in 10.0 mi Calm Calm - N/A   Overcast
11:55 AM 51.8 °F - 21.4 °F 30% 30.32 in 10.0 mi NNW 13.8 mph - N/A   Overcast
12:15 PM 52.0 °F - 21.9 °F 31% 30.31 in 10.0 mi North 10.4 mph - N/A   Overcast
1:15 PM 53.8 °F - 21.4 °F 28% 30.30 in 10.0 mi North 12.7 mph 19.6 mph N/A   Overcast
1:35 PM 53.6 °F - 21.4 °F 28% 30.30 in 10.0 mi North 11.5 mph 16.1 mph N/A   Overcast
1:55 PM 53.8 °F - 22.5 °F 30% 30.30 in 10.0 mi North 16.1 mph - N/A   Overcast
2:15 PM 55.0 °F - 21.6 °F 27% 30.30 in 10.0 mi NNW 12.7 mph 16.1 mph N/A   Overcast
2:35 PM 54.9 °F - 21.6 °F 27% 30.30 in 10.0 mi NNW 12.7 mph 19.6 mph N/A   Overcast
2:55 PM 55.4 °F - 21.6 °F 27% 30.30 in 10.0 mi NNW 10.4 mph 17.3 mph N/A   Overcast
3:15 PM 54.9 °F - 21.2 °F 27% 30.29 in 10.0 mi NW 8.1 mph 12.7 mph N/A   Overcast
3:35 PM 55.0 °F - 21.9 °F 28% 30.28 in 10.0 mi North 6.9 mph 19.6 mph N/A   Overcast
3:55 PM 53.8 °F - 22.5 °F 30% 30.29 in 10.0 mi NW 11.5 mph 16.1 mph N/A   Overcast
4:15 PM 54.1 °F - 23.5 °F 31% 30.29 in 10.0 mi NW 6.9 mph - N/A   Overcast
4:35 PM 54.5 °F - 22.6 °F 29% 30.28 in 10.0 mi NW 13.8 mph 18.4 mph N/A   Overcast
4:55 PM 53.1 °F - 23.2 °F 31% 30.29 in 10.0 mi NNW 11.5 mph - N/A   Overcast
5:15 PM 52.7 °F - 25.9 °F 35% 30.30 in 10.0 mi NW 15.0 mph 21.9 mph N/A   Overcast
5:35 PM 54.1 °F - 23.9 °F 31% 30.30 in 10.0 mi NNW 3.5 mph - N/A   Overcast
5:55 PM 53.8 °F - 24.8 °F 33% 30.29 in 10.0 mi NNW 5.8 mph - N/A   Overcast
6:15 PM 52.7 °F - 24.3 °F 33% 30.28 in 10.0 mi Calm Calm - N/A   Overcast
6:35 PM 52.7 °F - 25.5 °F 35% 30.28 in 10.0 mi North 3.5 mph - N/A   Overcast
6:55 PM 52.7 °F - 25.0 °F 34% 30.29 in 10.0 mi WNW 3.5 mph - N/A   Overcast
7:15 PM 49.6 °F - 31.1 °F 49% 30.30 in 10.0 mi NW 21.9 mph 29.9 mph N/A   Overcast
7:35 PM 47.7 °F - 32.4 °F 55% 30.32 in 10.0 mi NW 17.3 mph 28.8 mph N/A   Overcast
7:55 PM 45.5 °F 39.6 °F 32.9 °F 61% 30.32 in 10.0 mi NW 12.7 mph - N/A   Scattered Clouds
8:15 PM 43.9 °F 38.3 °F 33.3 °F 66% 30.31 in 10.0 mi WNW 10.4 mph - N/A   Clear
8:35 PM 43.0 °F 39.5 °F 33.8 °F 70% 30.31 in 10.0 mi WNW 5.8 mph - N/A   Scattered Clouds
8:55 PM 42.1 °F 39.2 °F 33.4 °F 71% 30.32 in 10.0 mi West 4.6 mph - N/A   Scattered Clouds
9:15 PM 42.4 °F 37.5 °F 33.8 °F 71% 30.33 in 10.0 mi NW 8.1 mph - N/A   Scattered Clouds
9:35 PM 41.5 °F 35.9 °F 33.3 °F 72% 30.33 in 10.0 mi WNW 9.2 mph - N/A   Clear
9:55 PM 40.3 °F 35.5 °F 32.9 °F 75% 30.33 in 10.0 mi WNW 6.9 mph - N/A   Clear
10:15 PM 41.0 °F 35.8 °F 33.1 °F 73% 30.33 in 10.0 mi NW 8.1 mph - N/A   Clear
10:35 PM 37.8 °F 35.3 °F 32.4 °F 81% 30.33 in 10.0 mi North 3.5 mph - N/A   Clear
10:55 PM 37.0 °F 33.3 °F 31.6 °F 81% 30.32 in 10.0 mi NW 4.6 mph - N/A   Clear
11:15 PM 38.1 °F - 32.0 °F 79% 30.31 in 10.0 mi Calm Calm - N/A   Clear
11:35 PM 37.8 °F - 32.0 °F 80% 30.30 in 10.0 mi Calm Calm - N/A   Clear
11:55 PM 36.3 °F 32.5 °F 31.1 °F 81% 30.30 in 10.0 mi West 4.6 mph - N/A   Clear